Location: *
(60.1759°S, 155.0663°W)
Time: 04:09:38
(UTC+00:00)

Cosmos 1470 Rocket - Pass Details

Date: 17 September 2019
Orbit: 603 x 635 km, 82.5° (Epoch: 18 October)

Event Time Altitude Azimuth Distance (km) Brightness Sun altitude
Exits shadow 13:33:18 23° 14° (NNE) 1,356 5.1 -20.8°
Maximum altitude 13:35:55 55° 83° (E) 767 4.2 -20.6°
Drops below altitude 10° 13:40:21 10° 160° (SSE) 2,047 7.0 -20.1°
Sets 13:42:39 0° 164° (SSE) 2,967 7.8 -19.9°
